Location: Unspecified
(48.1967°N, 0.0000°E)
Time: 06:30:18
(UTC+00:00)

CSL-04 DEB - Visible Passes

Search period start: 04 April 2026 00:00
Search period end: 14 April 2026 00:00
Orbit: 691 x 841 km, 98.7° (Epoch: 29 March)

Date Brightness Start Highest point End Pass type
(mag) Time Alt. Az. Time Alt. Az. Time Alt. Az.
4 Apr ? 20:33:42 18° S 20:37:41 67° WSW 20:42:47 10° NNW visible
5 Apr ? 19:56:37 14° SSE 20:01:07 63° ENE 20:06:09 10° N visible
5 Apr ? 21:36:49 11° SW 21:40:27 20° W 21:44:14 10° NW visible
6 Apr ? 19:20:07 10° SE 19:24:43 32° ENE 19:29:10 10° N visible
6 Apr ? 20:59:43 16° SSW 21:03:34 40° W 21:08:22 10° NNW visible
7 Apr ? 20:22:37 16° SSE 20:26:53 82° WSW 20:31:58 10° NNW visible
7 Apr ? 22:04:36 10° WSW 22:06:34 12° W 22:08:31 10° WNW visible
8 Apr ? 19:45:31 11° SE 19:50:22 50° ENE 19:55:13 10° N visible
8 Apr ? 21:25:44 12° SW 21:29:33 25° W 21:33:42 10° NW visible
9 Apr ? 19:09:46 10° ESE 19:14:00 26° ENE 19:18:07 10° N visible
9 Apr ? 20:48:38 15° S 20:52:44 50° W 20:57:37 10° NNW visible
10 Apr ? 20:11:31 14° SSE 20:16:05 82° ENE 20:21:06 10° NNW visible
10 Apr ? 21:52:44 10° WSW 21:55:37 15° W 21:58:28 10° NW visible
11 Apr ? 19:34:49 10° SE 19:39:36 41° ENE 19:44:14 10° N visible
11 Apr ? 21:14:38 12° SSW 21:18:39 30° W 21:23:03 10° NW visible
12 Apr ? 20:37:32 14° S 20:41:53 62° WSW 20:46:48 10° NNW visible
13 Apr ? 20:00:25 11° SSE 20:05:17 66° ENE 20:10:10 10° N visible
13 Apr ? 21:41:10 10° SW 21:44:40 18° W 21:48:06 10° NW visible
